Location: Lussas
(44.6119°N, 4.4726°E)
Time: 15:32:09
(UTC+00:00)

NOAA 6 - Pass Details

Date: 26 November 2020
Orbit: 773 x 786 km, 98.7° (Epoch: 28 January)

Event Time Altitude Azimuth Distance (km) Brightness Sun altitude
Rises 06:03:20 0° 11° (N) 3,262 7.2 -8.9°
Reaches altitude 10° 06:05:40 10° 9° (N) 2,330 6.4 -8.5°
Maximum altitude 06:10:45 66° 288° (WNW) 844 4.0 -7.6°
Drops below altitude 10° 06:15:48 10° 207° (SSW) 2,313 6.5 -6.8°
Sets 06:18:06 0° 204° (SSW) 3,236 7.2 -6.4°
